sat.trackr.live / text

‹ back to catalog

FLOCK 4H-4

NORAD 66707 · 2025-276AT

PAYLOAD ACTIVE UNKNOWN

§ Identity

Operator
Country
US
Launch date
2025-11-28
Launch site
AFWTR
Launch vehicle
Mass (kg)
RCS (m²)

Purposes: earth_obs

External: N2YO · Heavens-Above · Gunter

§ Orbital elements

Epoch: 2026-09-19T10:05:52.909728Z

Period
94.69 min
Inclination
97.4147°
Eccentricity
0.0005458
Mean motion
15.20766789 rev/d
Perigee alt
499.8 km
Apogee alt
507.3 km
Semi-major
6,881.7 km
B*
2.2855e-4
RAAN
334.4425°
Arg perigee
48.9863°
Mean anomaly
311.1844°
Rev number
4,473

§ Raw data

FLOCK 4H-41 66707U 25276AT  26262.42075127  .00004967  00000+0  22855-3 0  99942 66707  97.4147 334.4425 0005458  48.9863 311.1844 15.20766789 44736

JSON: /api/v1/satellites/66707 · /tle

For live sub-satellite position, see the globe view (requires WebGL).

§ Visibility from observer

Set your observer location to see the next 7 days of passes ≥ 10°. The values pass through the URL so the page stays shareable.

No JS? Fill the form by hand. The geolocation button needs JavaScript.